• In Hungary
  • List of Countries
  • For 7 days
  • Water Temperature
  • Satellite Maps
  • Weather Map
  • News
  • Weather Widgets
  • user-avatar
    Login

    Hourly Weather Syuren

    Today, 24 September, Monday

    Time Temperature Precipitation Wind Pressure Humidity
    00:00 +13°C° 0 mm 1 mps 737 mmHg 93%
    01:00 +13°C° 0 mm 1 mps 736 mmHg 94%
    02:00 +13°C° 0 mm 1 mps 736 mmHg 94%
    03:00 +13°C° 0 mm 1 mps 736 mmHg 94%
    04:00 +12°C° 0 mm 1 mps 736 mmHg 95%
    05:00 +12°C° 0 mm 1 mps 736 mmHg 95%
    06:00 +13°C° 0 mm 1 mps 736 mmHg 96%
    07:00 +13°C° 0 mm 1 mps 736 mmHg 96%
    08:00 +15°C° 0 mm 2 mps 736 mmHg 89%
    09:00 +17°C° 0 mm 2 mps 736 mmHg 83%
    10:00 +19°C° 0 mm 3 mps 736 mmHg 77%
    11:00 +20°C° 0.2 mm 3 mps 736 mmHg 72%
    12:00 +21°C° 0.2 mm 4 mps 736 mmHg 68%
    13:00 +21°C° 0.2 mm 4 mps 736 mmHg 63%
    14:00 +21°C° 0.2 mm 4 mps 736 mmHg 62%
    15:00 +21°C° 0.2 mm 4 mps 735 mmHg 61%
    16:00 +21°C° 0.2 mm 4 mps 735 mmHg 60%
    17:00 +20°C° 0 mm 3 mps 735 mmHg 66%
    18:00 +18°C° 0 mm 3 mps 735 mmHg 71%
    19:00 +16°C° 0 mm 2 mps 735 mmHg 76%
    20:00 +15°C° 0 mm 2 mps 735 mmHg 77%
    21:00 +15°C° 0 mm 2 mps 735 mmHg 79%
    22:00 +14°C° 0 mm 2 mps 735 mmHg 80%
    23:00 +14°C° 0 mm 2 mps 735 mmHg 81%

    Tomorrow, 25 September, Tuesday

    Time Temperature Precipitation Wind Pressure Humidity
    00:00 +13°C° 0 mm 2 mps 735 mmHg 82%
    01:00 +13°C° 0 mm 2 mps 735 mmHg 83%
    02:00 +13°C° 0 mm 2 mps 735 mmHg 84%
    03:00 +13°C° 0 mm 2 mps 735 mmHg 85%
    04:00 +12°C° 0 mm 2 mps 735 mmHg 86%
    05:00 +12°C° 0 mm 2 mps 735 mmHg 84%
    06:00 +12°C° 0 mm 2 mps 735 mmHg 83%
    07:00 +12°C° 0 mm 2 mps 735 mmHg 81%
    08:00 +14°C° 0 mm 3 mps 736 mmHg 70%
    09:00 +17°C° 0 mm 4 mps 736 mmHg 59%
    10:00 +20°C° 0 mm 5 mps 736 mmHg 48%
    11:00 +20°C° 0 mm 5 mps 736 mmHg 45%
    12:00 +21°C° 0 mm 6 mps 736 mmHg 42%
    13:00 +22°C° 0 mm 6 mps 735 mmHg 40%
    14:00 +22°C° 0 mm 6 mps 735 mmHg 42%
    15:00 +22°C° 0 mm 5 mps 735 mmHg 44%
    16:00 +22°C° 0 mm 5 mps 735 mmHg 47%
    17:00 +20°C° 0 mm 4 mps 735 mmHg 51%
    18:00 +18°C° 0 mm 3 mps 735 mmHg 56%
    19:00 +16°C° 0 mm 3 mps 735 mmHg 61%
    20:00 +16°C° 0 mm 3 mps 735 mmHg 62%
    21:00 +14°C° 0 mm 3 mps 735 mmHg 64%
    22:00 +13°C° 0 mm 3 mps 736 mmHg 65%
    23:00 +14°C° 0 mm 2 mps 736 mmHg 67%

    Day after tomorrow, 26 September, Wednesday

    Time Temperature Precipitation Wind Pressure Humidity
    00:00 +13°C° 0 mm 2 mps 736 mmHg 70%
    01:00 +13°C° 0 mm 2 mps 736 mmHg 72%
    02:00 +13°C° 0 mm 2 mps 736 mmHg 74%
    03:00 +12°C° 0 mm 2 mps 736 mmHg 75%
    04:00 +12°C° 0 mm 2 mps 736 mmHg 77%
    05:00 +12°C° 0 mm 2 mps 736 mmHg 76%
    06:00 +12°C° 0 mm 2 mps 736 mmHg 75%
    07:00 +12°C° 0 mm 2 mps 736 mmHg 75%
    08:00 +13°C° 0 mm 3 mps 737 mmHg 70%
    09:00 +16°C° 0 mm 3 mps 737 mmHg 65%
    10:00 +17°C° 0 mm 4 mps 737 mmHg 60%
    11:00 +18°C° 0.1 mm 4 mps 737 mmHg 61%
    12:00 +18°C° 0.1 mm 4 mps 737 mmHg 62%
    13:00 +18°C° 0.1 mm 4 mps 737 mmHg 64%
    14:00 +18°C° 0.1 mm 3 mps 737 mmHg 65%
    15:00 +17°C° 0.1 mm 3 mps 737 mmHg 66%
    16:00 +17°C° 0.1 mm 3 mps 737 mmHg 68%
    17:00 +16°C° 0 mm 2 mps 737 mmHg 71%
    18:00 +15°C° 0 mm 2 mps 737 mmHg 74%
    19:00 +14°C° 0 mm 1 mps 737 mmHg 77%
    20:00 +14°C° 0 mm 1 mps 737 mmHg 79%
    21:00 +13°C° 0 mm 1 mps 737 mmHg 81%
    22:00 +13°C° 0 mm 1 mps 737 mmHg 83%
    23:00 +13°C° 0 mm 1 mps 737 mmHg 85%

    27 September, Thursday

    Time Temperature Precipitation Wind Pressure Humidity
    00:00 +12°C° 0 mm 1 mps 737 mmHg 86%
    01:00 +12°C° 0 mm 1 mps 737 mmHg 88%
    02:00 +12°C° 0.1 mm 1 mps 737 mmHg 90%
    03:00 +11°C° 0.1 mm 1 mps 737 mmHg 91%
    04:00 +11°C° 0.1 mm 1 mps 737 mmHg 93%
    05:00 +11°C° 0.5 mm 1 mps 737 mmHg 93%
    06:00 +10°C° 0.5 mm 1 mps 736 mmHg 94%
    07:00 +10°C° 0.5 mm 1 mps 736 mmHg 94%
    08:00 +10°C° 0.8 mm 1 mps 736 mmHg 93%
    09:00 +10°C° 0.8 mm 1 mps 736 mmHg 92%
    10:00 +10°C° 0.8 mm 1 mps 736 mmHg 91%
    11:00 +10°C° 0.5 mm 1 mps 736 mmHg 90%
    12:00 +9°C° 0.5 mm 2 mps 736 mmHg 88%
    13:00 +9°C° 0.5 mm 2 mps 736 mmHg 86%
    14:00 +9°C° 0.2 mm 2 mps 736 mmHg 86%
    15:00 +9°C° 0.2 mm 2 mps 735 mmHg 85%
    16:00 +9°C° 0.2 mm 2 mps 735 mmHg 84%
    17:00 +8°C° 0.1 mm 2 mps 735 mmHg 87%
    18:00 +7°C° 0.1 mm 2 mps 735 mmHg 89%
    19:00 +6°C° 0.1 mm 2 mps 735 mmHg 91%
    20:00 +6°C° 0 mm 2 mps 735 mmHg 91%
    21:00 +5°C° 0 mm 2 mps 735 mmHg 91%
    22:00 +5°C° 0 mm 2 mps 735 mmHg 90%
    23:00 +5°C° 0 mm 2 mps 734 mmHg 88%

    28 September, Friday

    Time Temperature Precipitation Wind Pressure Humidity
    00:00 +5°C° 0 mm 2 mps 734 mmHg 86%
    01:00 +4°C° 0 mm 3 mps 733 mmHg 84%
    02:00 +4°C° 0 mm 3 mps 733 mmHg 84%
    03:00 +4°C° 0 mm 3 mps 732 mmHg 84%
    04:00 +4°C° 0 mm 3 mps 732 mmHg 83%
    05:00 +4°C° 0.3 mm 4 mps 732 mmHg 84%
    06:00 +4°C° 0.3 mm 4 mps 731 mmHg 85%
    07:00 +5°C° 0.3 mm 5 mps 731 mmHg 86%
    08:00 +5°C° 0.6 mm 5 mps 731 mmHg 86%
    09:00 +4°C° 0.6 mm 6 mps 730 mmHg 87%
    10:00 +4°C° 0.6 mm 6 mps 730 mmHg 87%
    11:00 +6°C° 0.2 mm 5 mps 730 mmHg 85%
    12:00 +6°C° 0.2 mm 5 mps 730 mmHg 83%
    13:00 +6°C° 0.2 mm 4 mps 730 mmHg 81%
    14:00 +6°C° 0.4 mm 4 mps 731 mmHg 82%
    15:00 +6°C° 0.4 mm 4 mps 731 mmHg 83%
    16:00 +6°C° 0.4 mm 4 mps 731 mmHg 83%
    17:00 +6°C° 0.3 mm 4 mps 732 mmHg 86%
    18:00 +5°C° 0.3 mm 3 mps 732 mmHg 89%
    19:00 +5°C° 0.3 mm 3 mps 732 mmHg 92%
    20:00 +4°C° 0 mm 3 mps 733 mmHg 93%
    21:00 +4°C° 0 mm 3 mps 733 mmHg 94%
    22:00 +4°C° 0 mm 3 mps 733 mmHg 95%
    23:00 +4°C° 0 mm 2 mps 733 mmHg 95%

    29 September, Saturday

    Time Temperature Precipitation Wind Pressure Humidity
    00:00 +4°C° 0 mm 2 mps 734 mmHg 95%
    01:00 +4°C° 0 mm 2 mps 734 mmHg 95%
    02:00 +4°C° 0 mm 2 mps 734 mmHg 95%
    03:00 +3°C° 0 mm 3 mps 734 mmHg 94%
    04:00 +3°C° 0 mm 3 mps 734 mmHg 94%
    05:00 +3°C° 0 mm 4 mps 734 mmHg 92%
    06:00 +3°C° 0 mm 5 mps 734 mmHg 90%
    07:00 +4°C° 0 mm 6 mps 734 mmHg 87%
    08:00 +5°C° 0 mm 6 mps 734 mmHg 81%
    09:00 +8°C° 0 mm 7 mps 734 mmHg 75%
    10:00 +10°C° 0 mm 8 mps 734 mmHg 69%
    11:00 +11°C° 0 mm 8 mps 734 mmHg 66%
    12:00 +12°C° 0 mm 8 mps 734 mmHg 64%
    13:00 +15°C° 0 mm 8 mps 734 mmHg 61%
    14:00 +15°C° 0 mm 8 mps 734 mmHg 63%
    15:00 +15°C° 0 mm 7 mps 734 mmHg 64%
    16:00 +15°C° 0 mm 6 mps 733 mmHg 66%
    17:00 +14°C° 0 mm 5 mps 734 mmHg 68%
    18:00 +14°C° 0 mm 5 mps 734 mmHg 70%
    19:00 +14°C° 0 mm 4 mps 734 mmHg 73%
    20:00 +13°C° 0.1 mm 4 mps 734 mmHg 75%
    21:00 +13°C° 0.1 mm 4 mps 734 mmHg 77%
    22:00 +13°C° 0.1 mm 4 mps 734 mmHg 79%
    23:00 +12°C° 0.1 mm 4 mps 734 mmHg 81%
    Show more